Date String (YYYY-MM-DD hh:mm:ss) UTC,Instrument flags,absolute air pressure of the measurement (hPa),sample flow rate (lpm),inlet stack bypass flow (lpm),air temperature of the measurement (°C),ambient temperature measured by the external sensor (°C),aerosol sample conditioner tube jacket temperature (°C),OPC LED temperature (°C),internal box temperature (°C),relative humidity of the measurement (%),span deviation,mass concentration of particles derived from Lorenz-Mie calculation of OPC scattering (μg/m³),mass concentration of particles derived from Lorenz-Mie calculation of OPC scattering (μg/m³),mass concentration of particles derived from Lorenz-Mie calculation of OPC scattering (μg/m³)
DateTimeUTC,F1_M11,P_M11,Q1_M11,Q2_M11,T1_M11,T2_M11,T3_M11,T4_M11,T5_M11,U1_M11,ZSPAN_M11,X2_M11,X0_M11,X1_M11
2024-02-09 08:00:00,SystemResetWarning,0821.1,5.00,000.00,018.3,017.5,000.0,026.8,020.0,16.2,0000.0,0002.24,0003.81,0001.89
2024-02-09 08:01:00,SystemResetWarning,0821.0,4.99,000.00,018.3,017.5,000.0,026.8,020.0,16.0,0000.0,0002.20,0003.73,0001.84
2024-02-09 08:02:00,SystemResetWarning,0821.0,5.00,000.00,018.3,017.5,000.0,026.8,020.0,15.2,0000.0,0002.16,0003.74,0001.80
2024-02-09 08:03:00,SystemResetWarning,0821.0,5.00,000.00,018.3,017.5,000.0,026.8,020.0,15.1,0000.0,0002.12,0003.69,0001.75
2024-02-09 08:04:00,SystemResetWarning,0820.9,5.00,000.00,018.3,017.5,000.0,026.8,020.0,15.1,0000.0,0002.08,0003.40,0001.71
2024-02-09 08:05:00,SystemResetWarning,0821.0,5.00,000.00,018.3,017.5,000.0,026.8,020.0,15.6,0000.0,0002.08,0003.36,0001.68
2024-02-09 08:06:00,SystemResetWarning,0821.0,5.00,000.00,018.3,017.5,000.0,026.8,020.0,15.8,0000.0,0002.01,0003.22,0001.61
2024-02-09 08:07:00,SystemResetWarning,0821.0,4.99,000.00,018.3,017.5,000.0,026.8,020.0,15.6,0000.0,0001.91,0002.91,0001.54
2024-02-09 08:08:00,SystemResetWarning,0821.0,4.99,000.00,018.3,017.5,000.0,026.8,020.0,15.3,0000.0,0001.85,0002.84,0001.48
2024-02-09 08:09:00,SystemResetWarning,0821.1,4.99,000.00,018.3,017.5,000.0,026.8,020.0,15.3,0000.0,0001.84,0002.86,0001.44
2024-02-09 08:10:00,SystemResetWarning,0821.1,5.00,000.00,018.3,017.5,000.0,026.8,020.0,15.2,0000.0,0001.87,0002.98,0001.44
2024-02-09 08:11:00,SystemResetWarning,0820.9,5.01,000.00,018.3,017.5,000.0,026.8,020.0,15.0,0000.0,0001.87,0002.93,0001.45
2024-02-09 08:12:00,SystemResetWarning,0821.2,5.00,000.00,018.3,017.5,000.0,026.8,020.0,14.9,0000.0,0001.82,0003.07,0001.43
2024-02-09 08:13:00,SystemResetWarning,0821.0,4.99,000.00,018.3,017.5,000.0,026.8,020.0,14.5,0000.0,0001.75,0003.72,0001.39
2024-02-09 08:14:00,SystemResetWarning,0821.0,4.99,000.00,018.3,017.5,000.0,026.9,020.0,14.4,0000.0,0001.70,0003.72,0001.35
2024-02-09 08:15:00,SystemResetWarning,0821.1,5.00,000.00,018.3,017.5,000.0,026.9,020.0,14.5,0000.0,0001.65,0003.65,0001.30
2024-02-09 08:16:00,SystemResetWarning,0821.1,5.01,000.00,018.3,017.5,000.0,026.9,020.0,14.6,0000.0,0001.57,0003.55,0001.24
2024-02-09 08:17:00,SystemResetWarning,0820.9,5.01,000.00,018.3,017.5,000.0,026.8,020.0,14.6,0000.0,0001.52,0003.49,0001.21
2024-02-09 08:18:00,SystemResetWarning,0820.9,4.99,000.00,018.3,017.5,000.0,026.9,020.0,14.5,0000.0,0001.48,0003.43,0001.18
2024-02-09 08:19:00,SystemResetWarning,0821.1,4.99,000.00,018.3,017.5,000.0,026.9,020.0,14.6,0000.0,0001.45,0004.23,0001.15
2024-02-09 08:20:00,SystemResetWarning,0820.9,5.00,000.00,018.2,017.5,000.0,026.9,020.0,14.5,0000.0,0001.39,0004.32,0001.10
2024-02-09 08:21:00,SystemResetWarning,0820.9,5.01,000.00,018.3,017.4,000.0,026.9,020.0,14.7,0000.0,0001.33,0004.20,0001.04
2024-02-09 08:22:00,SystemResetWarning,0821.1,5.00,000.00,018.3,017.4,000.0,026.9,020.0,15.0,0000.0,0001.31,0004.27,0000.99
2024-02-09 08:23:00,SystemResetWarning,0821.0,5.01,000.00,018.2,017.4,000.0,026.9,020.0,14.7,0000.0,0001.29,0004.08,0000.95
2024-02-09 08:24:00,SystemResetWarning,0821.2,5.00,000.00,018.2,017.4,000.0,026.9,020.0,14.5,0000.0,0001.27,0003.28,0000.92
2024-02-09 08:25:00,SystemResetWarning,0821.0,5.00,000.00,018.2,017.4,000.0,026.8,020.0,14.4,0000.0,0001.25,0003.21,0000.89
2024-02-09 08:26:00,SystemResetWarning,0820.9,5.00,000.00,018.2,017.4,000.0,026.9,020.0,14.6,0000.0,0001.23,0003.17,0000.89
2024-02-09 08:27:00,SystemResetWarning,0820.9,5.00,000.00,018.2,017.4,000.0,026.9,020.0,15.0,0000.0,0001.18,0003.01,0000.88
2024-02-09 08:28:00,SystemResetWarning,0820.9,5.00,000.00,018.2,017.4,000.0,026.9,020.0,15.4,0000.0,0001.18,0003.08,0000.88
2024-02-09 08:29:00,SystemResetWarning,0820.9,5.00,000.00,018.2,017.4,000.0,026.9,020.0,15.5,0000.0,0001.20,0003.20,0000.88
2024-02-09 08:30:00,SystemResetWarning,0821.0,5.00,000.00,018.3,017.6,000.0,027.0,020.1,15.7,0000.0,0001.20,0002.31,0000.88
2024-02-09 08:31:00,SystemResetWarning,0821.0,5.01,000.00,018.4,018.2,000.0,027.0,020.5,15.6,0000.0,0001.20,0002.19,0000.89
2024-02-09 08:32:00,SystemResetWarning,0821.1,4.99,000.00,018.6,018.7,000.0,027.0,020.7,15.6,0000.0,0001.18,0002.10,0000.90
2024-02-09 08:33:00,SystemResetWarning,0821.1,4.99,000.00,018.6,018.6,000.0,026.9,020.6,15.5,0000.0,0001.15,0001.92,0000.93
2024-02-09 08:34:00,SystemResetWarning,0821.4,5.00,000.00,018.6,018.5,000.0,026.9,020.5,15.7,0000.0,0001.17,0001.83,0000.96
2024-02-09 08:35:00,SystemResetWarning,0821.1,5.00,000.00,018.6,018.4,000.0,026.9,020.3,15.8,0000.0,0001.19,0001.85,0001.00
2024-02-09 08:36:00,SystemResetWarning,0820.9,5.00,000.00,018.6,018.3,000.0,026.8,020.3,15.9,0000.0,0001.21,0002.50,0001.03
2024-02-09 08:37:00,SystemResetWarning,0821.1,4.99,000.00,018.6,018.2,000.0,026.8,020.2,15.9,0000.0,0001.23,0003.55,0001.05
2024-02-09 08:38:00,SystemResetWarning,0821.1,5.00,000.00,018.6,018.1,000.0,026.8,020.2,16.1,0000.0,0001.28,0003.65,0001.09
2024-02-09 08:39:00,SystemResetWarning,0821.2,5.00,000.00,018.6,018.1,000.0,026.8,020.2,16.2,0000.0,0001.34,0003.69,0001.13
2024-02-09 08:40:00,SystemResetWarning,0821.4,4.99,000.00,018.5,018.0,000.0,026.8,020.1,16.4,0000.0,0001.40,0003.67,0001.17
2024-02-09 08:41:00,SystemResetWarning,0821.2,5.00,000.00,018.5,018.0,000.0,026.8,020.1,16.5,0000.0,0001.44,0003.77,0001.21
2024-02-09 08:42:00,SystemResetWarning,0821.0,5.01,000.00,018.5,017.9,000.0,026.8,020.0,16.7,0000.0,0001.48,0004.03,0001.24
2024-02-09 08:43:00,SystemResetWarning,0821.0,5.00,000.00,018.5,017.9,000.0,026.8,020.0,16.9,0000.0,0001.54,0005.01,0001.28
2024-02-09 08:44:00,SystemResetWarning,0821.0,5.00,000.00,018.4,017.8,000.0,026.8,020.0,17.1,0000.0,0001.63,0005.64,0001.31
2024-02-09 08:45:00,SystemResetWarning,0821.0,5.00,000.00,018.4,017.8,000.0,026.8,020.0,17.3,0000.0,0001.72,0006.30,0001.35
2024-02-09 08:46:00,SystemResetWarning,0821.0,4.99,000.00,018.4,017.7,000.0,026.8,020.0,17.4,0000.0,0001.79,0006.57,0001.38
2024-02-09 08:47:00,SystemResetWarning,0821.1,5.00,000.00,018.4,017.7,000.0,026.8,020.0,17.4,0000.0,0001.85,0007.11,0001.43
2024-02-09 08:48:00,SystemResetWarning,0821.1,5.00,000.00,018.4,017.7,000.0,026.8,020.0,17.4,0000.0,0001.95,0006.21,0001.49
2024-02-09 08:49:00,SystemResetWarning,0821.1,5.00,000.00,018.4,017.7,000.0,026.8,020.0,17.5,0000.0,0002.01,0006.37,0001.55
2024-02-09 08:50:00,SystemResetWarning,0821.1,5.01,000.00,018.4,017.7,000.0,026.8,020.0,17.5,0000.0,0002.08,0006.49,0001.60
2024-02-09 08:51:00,SystemResetWarning,0821.1,5.00,000.00,018.4,017.6,000.0,026.8,020.0,17.5,0000.0,0002.14,0006.68,0001.65
2024-02-09 08:52:00,SystemResetWarning,0821.1,4.99,000.00,018.3,017.6,000.0,026.8,020.0,17.6,0000.0,0002.22,0006.88,0001.71
2024-02-09 08:53:00,SystemResetWarning,0821.1,4.99,000.00,018.3,017.6,000.0,026.8,020.0,17.5,0000.0,0002.36,0007.19,0001.78
2024-02-09 08:54:00,SystemResetWarning,0821.1,5.00,000.00,018.3,017.6,000.0,026.8,020.0,17.5,0000.0,0002.46,0006.70,0001.82
2024-02-09 08:55:00,SystemResetWarning,0821.1,5.01,000.00,018.3,017.6,000.0,026.8,020.0,17.5,0000.0,0002.55,0007.01,0001.85
2024-02-09 08:56:00,SystemResetWarning,0821.1,5.01,000.00,018.3,017.6,000.0,026.8,020.0,17.5,0000.0,0002.61,0007.02,0001.87
2024-02-09 08:57:00,SystemResetWarning,0821.0,4.99,000.00,018.3,017.6,000.0,026.8,020.0,17.4,0000.0,0002.69,0007.83,0001.89
2024-02-09 08:58:00,SystemResetWarning,0821.0,5.00,000.00,018.3,017.6,000.0,026.8,020.0,17.2,0000.0,0002.73,0007.36,0001.90
2024-02-09 08:59:00,SystemResetWarning,0821.1,4.99,000.00,018.3,017.5,000.0,026.8,020.0,17.4,0000.0,0002.75,0007.50,0001.89
